SCP
0 0 0 0 0 0 0 0 0 0 0 0 0 0 0 0 0 0 0 0 0 0 0 1 1 1 1 1 1 1 1 1 1 1 1 1 1 1 0 0 0 0 0 0 0 1 1 1 0
0 0 0 0 0 0 0 0 0 0 0 0 0 0 0 0 0 0 0 0 0 0 1 1 1 1 1 1 1 1 1 1 1 1 1 1 1 0 0 0 0 0 0 0 1 1 1 1 0
0 0 0 0 0 0 0 0 0 0 0 0 0 0 0 0 0 0 0 0 0 0 1 1 1 1 1 1 1 1 1 1 2 1 1 1 1 0 0 0 0 0 1 1 1 1 1 1 1
0 0 0 0 0 0 0 0 0 0 0 0 0 0 0 0 0 0 0 0 0 1 1 1 1 1 1 1 1 1 1 1 2 2 1 1 1 0 0 0 0 0 1 1 1 1 1 1 0
0 0 0 0 0 0 0 0 0 0 0 0 0 0 0 0 0 0 0 0 0 1 1 1 1 1 1 1 1 1 1 1 2 2 1 1 1 1 0 0 0 0 1 1 1 1 1 0 0
0 0 0 0 0 0 0 0 0 0 0 0 0 0 0 0 0 0 0 0 1 1 1 1 1 1 1 1 1 1 1 1 1 1 1 1 1 1 1 1 1 1 1 1 1 1 0 0 0
0 0 0 0 0 0 0 0 0 0 0 0 0 0 0 0 0 0 1 1 1 1 1 1 1 1 1 1 1 1 1 1 1 1 1 1 1 1 1 1 1 1 1 1 1 1 0 0 0
0 0 0 0 0 0 0 0 0 0 0 0 0 0 0 0 0 0 1 1 1 1 1 1 1 1 1 1 1 1 0 1 1 1 1 1 1 1 0 0 1 1 1 1 1 0 0 0 0
0 0 0 0 0 0 0 0 0 0 0 0 0 0 0 0 0 1 1 1 1 1 1 1 1 1 1 0 0 0 0 0 0 0 0 0 0 0 0 0 0 0 1 1 1 0 0 0 0
0 0 0 0 0 0 0 0 0 0 0 0 0 0 0 0 0 1 1 1 1 1 1 1 1 1 1 0 0 0 0 0 0 0 0 0 0 0 0 0 0 0 0 1 1 0 0 0 0
0 0 0 0 0 0 0 0 0 0 0 0 0 0 0 0 0 1 1 1 1 1 1 1 1 1 1 0 0 0 0 0 0 0 0 0 0 0 0 0 0 0 0 0 0 0 0 0 0
0 0 0 0 0 0 0 0 0 0 0 0 0 0 0 0 0 0 1 1 1 1 1 1 1 1 0 0 0 0 0 0 0 0 0 0 0 0 0 0 0 0 0 0 0 0 0 0 0
0 0 0 0 0 0 0 0 0 0 0 0 0 0 0 0 0 0 1 1 1 1 1 1 1 1 0 0 0 0 0 0 0 0 0 0 0 0 0 0 0 0 0 0 0 0 0 0 0
0 0 0 0 0 0 0 0 0 0 0 0 0 0 0 0 0 0 0 1 1 1 1 1 1 1 0 0 0 0 0 0 0 0 0 0 0 0 0 0 0 0 0 0 0 0 0 0 0
0 0 0 0 0 0 0 0 0 0 0 0 0 0 0 0 0 0 0 1 1 1 1 1 1 1 0 0 0 0 0 0 0 0 0 0 0 0 0 0 0 0 0 0 0 0 0 0 0
0 0 0 0 0 0 0 0 0 0 0 0 0 0 0 0 0 0 0 1 1 2 2 1 1 1 0 0 0 0 0 0 0 0 0 0 0 0 0 0 0 0 0 0 0 0 0 0 0
0 0 0 0 0 0 0 0 0 0 0 0 0 0 0 0 0 0 0 1 1 2 2 1 1 0 0 0 0 0 0 0 0 0 0 0 0 0 0 0 0 0 0 0 0 0 0 0 0
0 0 0 0 0 0 0 0 0 0 0 0 0 0 0 0 0 0 0 1 1 1 2 1 1 0 0 0 0 0 0 0 0 0 0 0 0 0 0 0 0 0 0 0 0 0 0 0 0
0 0 0 0 0 0 0 0 0 0 0 0 0 0 0 0 0 0 0 0 1 1 1 1 1 0 0 0 0 0 0 0 0 0 0 0 0 0 0 0 0 0 0 0 0 0 0 0 0
0 0 0 0 0 0 0 0 0 0 0 0 0 0 0 0 0 0 0 0 0 1 1 1 1 0 0 0 0 0 0 0 0 0 0 0 0 0 0 0 0 0 0 0 0 0 0 0 0
0 0 0 0 0 0 0 0 0 0 0 0 0 0 0 0 0 0 0 0 0 1 1 1 1 0 0 0 0 0 0 0 0 0 0 0 0 0 0 0 0 0 0 0 0 0 0 0 0
0 0 0 0 0 0 0 0 0 0 0 0 0 0 0 0 0 0 0 0 0 0 1 1 1 1 0 0 0 0 0 0 0 0 0 0 0 0 0 0 0 0 0 0 0 0 0 0 0
0 0 0 0 0 0 0 0 0 0 0 0 0 0 0 0 0 0 0 0 0 0 0 1 1 1 0 0 0 0 0 0 0 0 0 0 0 0 0 0 0 0 0 0 0 0 0 0 0
0 0 0 0 0 0 0 0 0 0 0 0 0 0 0 0 0 0 0 0 0 0 0 0 1 1 0 0 0 0 0 0 0 0 0 0 0 0 0 0 0 0 0 0 0 0 0 0 0
0 0 0 0 0 0 0 0 0 0 0 0 0 0 0 0 0 0 0 0 0 0 0 0 0 0 0 0 0 0 0 0 0 0 0 0 0 0 0 0 0 0 0 0 0 0 0 0 0
0 0 0 0 0 0 0 0 0 0 0 0 0 0 0 0 0 0 0 0 0 0 0 0 0 0 0 0 0 0 0 0 0 0 0 0 0 0 0 0 0 0 0 0 0 0 0 0 0
0 0 0 0 0 0 0 0 0 0 0 0 0 0 0 0 0 0 0 0 0 0 0 0 0 0 0 0 0 0 0 0 0 0 0 0 0 0 0 0 0 0 0 0 0 0 0 0 0
0 0 0 0 0 0 0 0 0 0 0 0 0 0 0 0 0 0 0 0 0 0 0 0 0 0 0 0 0 0 0 0 0 0 0 0 0 0 0 0 0 0 0 0 0 0 0 0 0
0 0 0 0 0 0 0 0 0 0 0 0 0 0 0 0 0 0 0 0 0 0 0 0 0 0 0 0 0 0 0 0 0 0 0 0 0 0 0 0 0 0 0 0 0 0 0 0 0
0 0 0 0 0 0 0 0 0 0 0 0 0 0 0 0 0 0 0 0 0 0 0 0 0 0 0 0 0 0 0 0 0 0 0 0 0 0 0 0 0 0 0 0 0 0 0 0 0
Wind_Speed
7 4 2 4 6 4 2 3 1 1 1 1 2 2 3 3 2 1 2 3 3 1 0 0 1 4 5 6 6 6 7 7 8 8 8 9 9 9 9 8 8 8 9 9 9 9 10 10 10
2 2 5 5 5 2 3 3 2 2 1 1 3 3 3 2 2 2 2 4 3 1 1 0 2 4 5 5 6 6 6 7 7 8 8 8 8 8 8 8 8 8 8 9 9 9 9 9 9
1 3 5 5 3 5 4 2 3 1 2 2 2 3 2 1 1 1 3 2 2 2 2 1 2 4 5 5 5 5 6 7 7 7 7 7 7 8 8 7 8 8 8 8 9 8 8 8 9
3 5 5 4 3 3 2 1 0 0 2 3 2 2 1 2 2 2 2 2 3 3 3 2 3 4 5 5 5 5 5 6 6 6 7 7 7 7 7 7 7 7 7 7 8 8 8 8 8
4 5 4 1 4 2 1 2 0 0 0 2 1 1 0 2 4 3 2 3 3 2 3 2 4 4 4 5 5 5 4 5 6 6 6 6 6 6 6 6 6 7 7 7 8 8 8 8 7
4 4 3 4 4 2 1 1 1 0 0 1 1 1 1 2 4 3 2 3 3 2 3 3 4 5 4 4 4 4 4 4 5 5 6 5 6 6 6 6 6 6 6 7 7 7 7 7 7
4 4 3 4 3 2 1 0 1 1 1 1 1 2 1 2 3 3 2 3 3 3 3 3 3 4 4 5 4 4 4 4 4 5 6 6 6 6 5 5 5 5 6 6 7 7 7 7 7
4 4 2 2 3 3 1 1 1 1 2 1 2 3 2 3 2 3 3 3 3 3 3 3 3 3 3 3 4 5 4 4 5 5 5 6 6 5 6 5 5 5 5 6 6 7 6 7 7
3 4 4 5 5 3 1 1 1 1 2 1 1 0 2 2 3 3 4 3 3 3 3 3 3 3 3 3 3 4 4 5 5 4 5 4 3 3 3 4 5 5 5 5 6 6 6 7 6
4 3 5 2 3 2 1 1 0 1 1 1 1 2 2 3 3 2 2 1 1 2 2 2 2 2 2 2 2 2 2 3 3 3 3 2 2 2 3 4 5 5 6 5 6 6 6 5 3
3 4 2 1 1 1 1 0 1 2 2 4 4 2 1 2 2 1 1 1 1 1 1 2 2 1 2 1 1 1 1 1 2 2 2 2 2 2 2 2 2 3 4 3 4 4 3 2 2
3 0 1 1 0 1 1 1 0 2 5 2 3 2 3 3 3 3 3 2 1 0 1 1 1 1 1 1 1 1 1 1 1 1 2 2 1 1 1 1 1 1 1 2 2 1 2 2 2
2 1 0 0 1 1 1 1 2 4 4 1 1 2 3 3 3 3 2 1 1 1 1 1 0 0 0 1 1 1 1 1 1 1 1 2 1 1 1 1 1 1 1 1 1 1 1 1 1
2 2 1 1 1 0 1 3 2 6 3 1 1 2 3 3 3 2 1 2 2 2 2 1 0 0 0 0 0 0 1 1 1 1 2 2 1 1 1 1 1 1 1 1 0 0 0 0 1
2 1 2 2 2 2 1 5 6 7 2 2 2 2 2 2 2 3 3 3 3 2 1 1 1 0 0 0 0 0 1 1 1 1 2 2 2 1 1 1 1 1 1 0 0 0 1 1 1
2 1 2 3 1 1 2 8 5 3 3 4 3 3 2 2 2 3 3 2 2 1 1 1 0 1 1 0 0 1 1 1 1 1 1 2 2 2 1 1 1 1 0 0 0 0 0 1 1
1 1 3 4 1 1 3 7 6 2 3 4 4 4 3 3 3 3 2 2 2 1 1 1 1 1 1 0 0 1 1 1 1 1 1 1 2 2 1 1 1 1 1 0 0 0 0 0 1
4 3 3 4 2 1 4 9 8 4 4 5 5 4 4 4 5 3 2 1 1 0 1 1 1 0 1 1 1 1 1 1 1 1 1 1 1 1 1 1 1 1 1 1 1 1 1 0 1
3 3 4 4 2 2 6 10 10 6 4 5 5 5 5 6 4 2 1 0 1 1 1 1 1 1 1 1 0 0 0 0 1 1 1 1 1 1 0 0 1 1 0 1 1 1 1 1 1
3 3 4 4 2 2 5 10 9 6 6 6 7 7 6 5 3 2 1 0 1 1 1 1 1 1 1 1 1 0 0 0 0 1 1 1 1 1 0 0 0 0 0 1 1 1 1 1 0
4 6 5 3 3 2 4 9 6 4 4 5 5 5 5 5 5 3 1 1 1 1 1 1 1 1 1 1 1 1 1 1 1 1 1 1 1 1 1 1 0 1 1 1 1 0 0 1 1
5 4 4 3 1 4 0 6 8 3 4 5 5 4 4 4 4 3 2 1 1 1 0 1 0 1 1 1 1 2 1 1 1 1 1 1 1 1 1 1 1 1 1 1 1 1 1 1 1
3 1 3 3 3 3 2 4 10 1 5 6 5 5 4 4 4 3 3 3 1 0 1 1 1 1 1 1 1 2 1 1 1 1 1 1 1 1 1 1 1 1 1 1 1 1 1 1 1
2 3 2 2 1 5 6 5 10 5 7 4 3 4 4 3 2 2 1 1 1 1 1 1 1 1 1 1 1 1 1 1 1 1 1 1 1 1 1 2 1 1 1 1 2 2 2 2 2
2 3 2 3 2 7 3 5 12 6 4 5 4 4 3 2 2 1 1 1 1 1 1 1 1 1 1 0 0 1 2 2 2 2 2 2 1 2 2 2 2 2 2 2 2 2 2 2 2
3 5 5 5 5 5 2 8 9 3 2 3 3 3 2 2 2 2 2 2 1 1 1 0 1 0 0 0 1 1 1 1 2 2 2 2 2 3 2 2 2 2 2 2 2 2 2 2 3
3 3 2 3 0 3 6 7 10 2 2 2 2 2 2 3 2 2 2 2 1 1 1 1 1 1 1 1 1 1 1 2 2 2 2 2 2 2 2 2 2 2 2 2 2 2 2 2 3
1 4 3 3 3 5 6 6 7 4 4 3 3 3 3 2 2 2 1 1 1 1 0 0 1 1 1 1 1 1 2 2 2 2 2 2 2 2 2 2 2 2 2 2 2 2 2 2 2
3 2 3 2 3 4 5 9 6 6 6 5 5 4 3 2 2 2 1 1 0 0 1 0 1 1 2 2 2 2 2 2 2 2 2 2 2 2 2 2 2 2 2 2 3 3 2 3 3
3 4 5 4 5 4 4 10 2 3 3 3 3 2 2 2 2 1 1 0 0 0 1 1 1 1 2 2 2 2 2 2 2 2 2 2 2 2 2 2 2 3 3 2 3 3 3 3 3
Wind_Direction
344 348 48 56 59 58 216 246 223 292 316 2 26 82 120 119 136 171 342 14 10 19 187 211 116 107 105 105 100 94 91 95 96 95 93 90 86 82 79 74 73 73 71 70 72 73 71 69 68
334 9 53 62 97 159 251 236 217 218 275 59 44 56 76 65 33 23 340 342 3 35 52 82 96 102 105 104 102 97 92 92 96 95 92 89 86 83 78 75 73 70 69 67 69 72 72 70 70
0 49 80 83 129 187 216 232 229 272 20 62 63 47 80 38 10 332 324 343 30 36 23 16 77 104 105 102 97 97 94 93 93 95 93 90 86 83 78 75 75 71 70 68 68 68 70 71 72
70 51 59 86 201 222 216 257 270 31 23 36 95 70 63 34 348 331 5 53 67 44 25 18 58 91 100 101 99 93 93 92 94 94 96 93 88 84 80 78 77 75 73 72 69 66 67 70 73
59 79 81 129 232 239 256 294 345 98 6 2 86 119 160 27 15 31 54 73 84 53 31 27 41 63 85 94 93 94 93 93 95 92 93 91 89 86 82 79 78 75 72 72 71 69 67 67 69
61 74 119 214 234 247 272 316 109 94 289 22 98 137 216 39 19 13 45 72 70 64 36 33 35 45 56 75 86 85 86 89 92 87 83 83 86 85 83 80 83 79 77 77 76 71 70 69 66
109 113 174 196 216 254 249 145 131 192 233 246 168 146 274 350 357 12 43 64 56 52 44 34 32 37 38 47 57 67 74 77 86 83 74 69 74 78 73 75 84 83 80 80 76 72 69 69 66
121 114 153 196 199 245 256 125 115 165 217 20 111 146 265 304 11 41 58 64 55 45 40 34 27 28 28 27 44 49 54 59 67 76 69 64 63 63 60 61 77 81 82 82 78 73 69 67 64
90 97 205 207 190 218 189 147 17 59 96 49 72 162 321 63 73 66 56 45 37 26 20 27 31 28 24 26 40 49 48 50 57 60 61 62 57 54 56 54 65 75 79 81 80 76 70 61 58
90 165 219 207 184 176 138 145 176 78 47 337 325 353 40 87 105 103 91 85 22 343 348 5 18 32 28 29 37 44 47 51 51 54 54 58 57 49 52 56 59 67 69 72 73 68 60 52 42
112 180 202 215 159 151 142 83 32 154 241 227 230 240 134 120 135 163 200 213 226 253 326 354 355 20 40 30 37 45 41 52 53 60 52 56 61 54 45 54 47 52 60 59 59 53 43 40 32
121 266 194 264 66 128 200 191 186 204 231 231 215 187 156 174 188 204 218 241 267 317 288 329 0 14 30 36 37 71 57 55 48 55 72 75 75 64 53 52 46 49 51 58 52 53 45 36 32
143 214 181 183 81 98 91 237 233 255 258 274 154 148 175 199 217 223 226 239 253 254 280 289 353 3 18 56 15 51 63 64 44 39 48 66 94 88 72 64 41 46 59 67 61 56 42 26 15
160 151 208 304 247 245 209 266 244 260 249 234 197 205 212 215 223 231 244 247 247 244 247 250 192 197 44 82 43 36 45 54 58 48 40 49 68 88 77 73 54 27 53 84 124 168 52 13 7
131 88 332 285 236 235 203 288 236 244 212 236 251 251 250 245 238 235 234 234 237 241 241 216 194 148 126 106 72 53 38 55 55 45 42 50 50 65 64 87 70 7 7 78 93 56 25 21 8
64 52 291 292 239 225 172 263 261 234 193 245 262 269 267 267 254 257 257 249 246 224 217 225 168 137 145 93 100 72 53 62 48 48 45 42 42 52 62 57 22 357 3 91 110 90 37 353 343
42 234 252 290 264 190 195 253 268 251 203 245 261 263 263 280 282 270 261 249 245 219 197 188 162 168 176 94 65 88 85 70 52 52 50 31 38 46 53 51 15 7 6 27 307 360 343 319 325
206 213 236 248 276 207 241 257 269 259 223 243 254 257 259 265 267 268 255 242 225 181 159 148 129 128 114 83 56 66 55 45 45 34 31 35 30 40 50 47 28 26 19 2 355 303 326 296 302
174 187 235 256 264 245 250 264 271 264 245 249 248 247 251 256 267 276 254 232 89 80 110 132 108 88 103 87 90 176 216 321 1 358 19 24 17 36 72 35 38 23 352 328 351 336 340 348 22
190 225 257 281 279 248 276 275 268 244 234 235 234 238 241 255 278 289 283 101 153 164 145 138 141 137 153 166 174 195 204 204 261 344 2 9 7 7 348 90 201 309 328 2 2 16 346 320 10
217 214 226 246 315 310 310 295 269 252 235 241 240 235 234 230 238 242 243 228 177 188 195 183 181 169 158 127 92 56 49 42 22 341 327 331 321 338 335 255 218 218 191 222 264 289 333 286 297
239 214 204 219 269 288 83 288 282 253 267 248 244 241 241 244 231 217 210 215 212 224 200 149 117 93 91 126 131 136 167 242 249 268 288 314 309 307 321 295 254 225 222 219 239 267 295 226 262
216 169 181 209 211 275 241 246 279 274 258 252 240 233 236 235 225 213 206 203 204 178 118 117 100 80 75 119 152 175 217 261 284 314 304 305 312 315 324 312 293 277 265 249 244 267 275 245 238
150 82 64 63 111 261 226 206 271 227 223 241 239 231 232 227 222 219 199 140 114 90 85 89 96 63 57 96 129 192 230 281 307 309 290 296 302 292 307 308 287 267 265 250 242 236 248 255 265
120 111 37 352 303 251 209 215 250 239 225 217 226 237 232 221 210 211 192 148 134 100 84 98 112 44 14 66 232 243 244 246 250 254 257 282 285 279 275 281 272 269 270 262 255 236 240 242 246
197 167 171 206 234 273 244 234 251 238 240 230 228 229 236 231 217 221 218 203 190 172 147 132 143 270 319 282 274 275 258 244 257 256 255 249 257 257 261 262 265 269 267 268 259 249 251 244 244
161 199 178 150 230 270 259 272 291 228 250 240 232 222 239 240 233 233 225 205 192 188 199 196 201 260 290 286 292 283 266 256 267 269 264 257 272 280 266 255 261 266 264 263 258 256 261 260 250
150 145 117 152 191 253 274 258 247 243 234 240 236 232 238 238 239 234 220 200 192 197 241 236 220 244 279 278 268 277 272 266 267 267 269 271 279 286 272 262 261 264 264 263 256 265 263 259 267
143 152 158 163 184 198 264 266 230 217 212 217 231 233 231 228 236 244 244 223 205 77 66 7 336 327 320 305 286 284 284 279 275 270 269 273 280 281 269 261 261 261 260 259 257 262 257 251 265
190 188 164 182 228 214 241 268 266 219 231 223 245 252 251 244 254 260 266 277 38 12 4 342 328 314 298 293 289 285 290 292 291 282 277 276 271 270 268 259 257 260 260 260 260 264 253 245 252